Time,TemperatureF,DewpointF,PressureIn,WindDirection,WindDirectionDegrees,WindSpeedMPH,WindSpeedGustMPH,Humidity,HourlyPrecipIn,Conditions,Clouds,dailyrainin,SoftwareType,DateUTC
2013-09-21 00:00:00,68.9,66.0,29.97,WSW,246,0.0,0.0,90,0.00,,,0.00,weatherlink.com 1.10,2013-09-21 04:00:00,
2013-09-21 00:15:00,68.4,66.0,29.97,WSW,246,0.0,0.0,91,0.00,,,0.00,weatherlink.com 1.10,2013-09-21 04:15:00,
2013-09-21 00:30:00,68.5,66.0,29.97,WSW,246,0.0,0.0,92,0.00,,,0.00,weatherlink.com 1.10,2013-09-21 04:30:00,
2013-09-21 00:45:00,68.5,66.0,29.97,WSW,246,0.0,1.0,92,0.00,,,0.00,weatherlink.com 1.10,2013-09-21 04:45:00,
2013-09-21 01:00:00,68.0,66.0,29.97,WSW,246,0.0,1.0,92,0.00,,,0.00,weatherlink.com 1.10,2013-09-21 05:00:00,
2013-09-21 01:15:00,67.5,66.0,29.97,WSW,245,0.0,0.0,93,0.00,,,0.00,weatherlink.com 1.10,2013-09-21 05:15:00,
2013-09-21 01:30:00,67.2,65.0,29.97,WSW,246,0.0,0.0,93,0.00,,,0.00,weatherlink.com 1.10,2013-09-21 05:30:00,
2013-09-21 01:45:00,66.9,65.0,29.97,WSW,246,0.0,0.0,94,0.00,,,0.00,weatherlink.com 1.10,2013-09-21 05:45:00,
2013-09-21 02:00:00,66.6,65.0,29.97,WSW,246,0.0,0.0,95,0.00,,,0.00,weatherlink.com 1.10,2013-09-21 06:00:00,
2013-09-21 02:15:00,66.6,65.0,29.97,WSW,246,0.0,0.0,95,0.00,,,0.00,weatherlink.com 1.10,2013-09-21 06:15:00,
2013-09-21 02:30:00,66.8,65.0,29.97,WSW,246,0.0,0.0,95,0.00,,,0.00,weatherlink.com 1.10,2013-09-21 06:30:00,
2013-09-21 02:45:00,67.1,66.0,29.96,WSW,246,0.0,0.0,96,0.00,,,0.00,weatherlink.com 1.10,2013-09-21 06:45:00,
2013-09-21 03:00:00,67.3,66.0,29.95,WSW,246,0.0,0.0,96,0.00,,,0.00,weatherlink.com 1.10,2013-09-21 07:00:00,
2013-09-21 03:15:00,67.6,67.0,29.95,WSW,246,0.0,0.0,96,0.00,,,0.00,weatherlink.com 1.10,2013-09-21 07:15:00,
2013-09-21 03:30:00,67.6,67.0,29.94,WSW,246,0.0,0.0,96,0.00,,,0.00,weatherlink.com 1.10,2013-09-21 07:30:00,
2013-09-21 03:45:00,67.6,67.0,29.94,WSW,246,0.0,1.0,96,0.00,,,0.00,weatherlink.com 1.10,2013-09-21 07:45:00,
2013-09-21 04:00:00,67.3,66.0,29.94,WSW,245,0.0,0.0,95,0.00,,,0.00,weatherlink.com 1.10,2013-09-21 08:00:00,
2013-09-21 04:15:00,66.8,66.0,29.93,WSW,246,0.0,0.0,96,0.00,,,0.00,weatherlink.com 1.10,2013-09-21 08:15:00,
2013-09-21 04:30:00,66.4,65.0,29.93,WSW,246,0.0,0.0,96,0.00,,,0.00,weatherlink.com 1.10,2013-09-21 08:30:00,
2013-09-21 04:45:00,66.2,65.0,29.92,WSW,246,0.0,0.0,96,0.00,,,0.00,weatherlink.com 1.10,2013-09-21 08:45:00,
2013-09-21 05:00:00,65.8,65.0,29.92,WSW,246,0.0,0.0,96,0.00,,,0.00,weatherlink.com 1.10,2013-09-21 09:00:00,
2013-09-21 05:15:00,65.9,65.0,29.91,WSW,246,0.0,1.0,97,0.00,,,0.00,weatherlink.com 1.10,2013-09-21 09:15:00,
2013-09-21 05:30:00,65.8,65.0,29.91,WSW,246,0.0,0.0,97,0.00,,,0.00,weatherlink.com 1.10,2013-09-21 09:30:00,
2013-09-21 05:45:00,65.4,65.0,29.91,WSW,246,0.0,0.0,97,0.00,,,0.00,weatherlink.com 1.10,2013-09-21 09:45:00,
2013-09-21 06:00:00,65.3,65.0,29.91,WSW,245,0.0,1.0,97,0.00,,,0.00,weatherlink.com 1.10,2013-09-21 10:00:00,
2013-09-21 06:15:00,65.0,64.0,29.90,WSW,246,0.0,0.0,97,0.00,,,0.00,weatherlink.com 1.10,2013-09-21 10:15:00,
2013-09-21 06:30:00,65.0,65.0,29.90,WSW,246,0.0,0.0,98,0.00,,,0.00,weatherlink.com 1.10,2013-09-21 10:30:00,
2013-09-21 06:45:00,65.0,65.0,29.90,WSW,246,0.0,1.0,98,0.00,,,0.00,weatherlink.com 1.10,2013-09-21 10:45:00,
2013-09-21 07:00:00,64.8,64.0,29.90,WSW,246,0.0,1.0,98,0.00,,,0.00,weatherlink.com 1.10,2013-09-21 11:00:00,
2013-09-21 07:15:00,64.8,64.0,29.91,WSW,246,0.0,0.0,98,0.00,,,0.00,weatherlink.com 1.10,2013-09-21 11:15:00,
2013-09-21 07:30:00,64.6,64.0,29.91,WSW,245,0.0,0.0,98,0.00,,,0.00,weatherlink.com 1.10,2013-09-21 11:30:00,
2013-09-21 07:45:00,65.1,65.0,29.91,WSW,246,0.0,0.0,98,0.00,,,0.00,weatherlink.com 1.10,2013-09-21 11:45:00,
2013-09-21 08:00:00,65.5,65.0,29.92,WSW,246,0.0,0.0,98,0.00,,,0.00,weatherlink.com 1.10,2013-09-21 12:00:00,
2013-09-21 08:16:00,66.5,66.0,29.92,WSW,246,0.0,0.0,98,0.00,,,0.00,weatherlink.com 1.10,2013-09-21 12:16:00,
2013-09-21 08:30:00,68.2,68.0,29.92,WSW,246,0.0,0.0,98,0.00,,,0.00,weatherlink.com 1.10,2013-09-21 12:30:00,
2013-09-21 08:46:00,70.6,70.0,29.93,WSW,246,0.0,0.0,98,0.00,,,0.00,weatherlink.com 1.10,2013-09-21 12:46:00,
2013-09-21 09:01:00,72.6,72.0,29.93,WSW,246,0.0,1.0,98,0.00,,,0.00,weatherlink.com 1.10,2013-09-21 13:01:00,
2013-09-21 09:16:00,75.5,74.0,29.92,SW,221,0.0,1.0,96,0.00,,,0.00,weatherlink.com 1.10,2013-09-21 13:16:00,
2013-09-21 09:31:00,78.2,74.0,29.93,SW,219,0.0,1.0,86,0.00,,,0.00,weatherlink.com 1.10,2013-09-21 13:31:00,
2013-09-21 09:46:00,79.9,73.0,29.93,WSW,246,1.0,3.0,80,0.00,,,0.00,weatherlink.com 1.10,2013-09-21 13:46:00,
2013-09-21 10:01:00,79.7,73.0,29.93,South,188,0.0,2.0,80,0.00,,,0.00,weatherlink.com 1.10,2013-09-21 14:01:00,
2013-09-21 10:16:00,79.2,73.0,29.92,SW,227,0.0,3.0,81,0.00,,,0.00,weatherlink.com 1.10,2013-09-21 14:16:00,
2013-09-21 10:31:00,79.9,73.0,29.92,SW,233,0.0,4.0,80,0.00,,,0.00,weatherlink.com 1.10,2013-09-21 14:31:00,
2013-09-21 10:46:00,80.8,74.0,29.91,WSW,242,0.0,3.0,79,0.00,,,0.00,weatherlink.com 1.10,2013-09-21 14:46:00,
2013-09-21 11:01:00,81.7,73.0,29.91,WSW,255,1.0,6.0,76,0.00,,,0.00,weatherlink.com 1.10,2013-09-21 15:01:00,
2013-09-21 11:16:00,82.0,72.0,29.90,SW,224,3.0,7.0,72,0.00,,,0.00,weatherlink.com 1.10,2013-09-21 15:16:00,
2013-09-21 11:31:00,82.9,73.0,29.90,SE,132,0.0,5.0,72,0.00,,,0.00,weatherlink.com 1.10,2013-09-21 15:31:00,
2013-09-21 11:46:00,84.0,74.0,29.89,NE,46,1.0,9.0,71,0.00,,,0.00,weatherlink.com 1.10,2013-09-21 15:46:00,
2013-09-21 12:01:00,84.3,74.0,29.89,WSW,255,1.0,6.0,70,0.00,,,0.00,weatherlink.com 1.10,2013-09-21 16:01:00,
2013-09-21 12:16:00,85.0,72.0,29.88,West,260,1.0,4.0,66,0.00,,,0.00,weatherlink.com 1.10,2013-09-21 16:16:00,
2013-09-21 12:31:00,83.7,73.0,29.88,SSE,160,2.0,4.0,69,0.00,,,0.00,weatherlink.com 1.10,2013-09-21 16:31:00,
2013-09-21 12:46:00,83.9,72.0,29.87,SE,129,1.0,6.0,68,0.00,,,0.00,weatherlink.com 1.10,2013-09-21 16:46:00,
2013-09-21 13:01:00,84.9,72.0,29.86,ESE,111,1.0,5.0,65,0.00,,,0.00,weatherlink.com 1.10,2013-09-21 17:01:00,
2013-09-21 13:16:00,85.3,72.0,29.86,SSW,198,1.0,5.0,65,0.00,,,0.00,weatherlink.com 1.10,2013-09-21 17:16:00,
2013-09-21 13:31:00,85.3,73.0,29.85,SE,141,1.0,6.0,66,0.00,,,0.00,weatherlink.com 1.10,2013-09-21 17:31:00,
2013-09-21 13:46:00,84.8,73.0,29.84,South,169,1.0,6.0,67,0.00,,,0.00,weatherlink.com 1.10,2013-09-21 17:46:00,
2013-09-21 14:01:00,83.7,71.0,29.83,SE,143,2.0,8.0,66,0.00,,,0.00,weatherlink.com 1.10,2013-09-21 18:01:00,
2013-09-21 14:16:00,84.8,71.0,29.83,SSW,208,1.0,10.0,64,0.00,,,0.00,weatherlink.com 1.10,2013-09-21 18:16:00,
2013-09-21 14:31:00,84.9,72.0,29.83,SE,137,4.0,5.0,65,0.00,,,0.00,weatherlink.com 1.10,2013-09-21 18:31:00,
2013-09-21 14:46:00,85.0,71.0,29.82,WSW,252,4.0,7.0,63,0.00,,,0.00,weatherlink.com 1.10,2013-09-21 18:46:00,
2013-09-21 15:02:00,84.0,71.0,29.82,SSE,157,3.0,5.0,66,0.00,,,0.00,weatherlink.com 1.10,2013-09-21 19:02:00,
2013-09-21 15:17:00,84.5,72.0,29.81,SW,221,2.0,8.0,67,0.00,,,0.00,weatherlink.com 1.10,2013-09-21 19:17:00,
2013-09-21 15:32:00,84.2,71.0,29.80,SSW,207,1.0,6.0,65,0.00,,,0.00,weatherlink.com 1.10,2013-09-21 19:32:00,
2013-09-21 15:47:00,83.8,72.0,29.80,South,174,3.0,5.0,68,0.00,,,0.00,weatherlink.com 1.10,2013-09-21 19:47:00,
2013-09-21 16:02:00,82.1,72.0,29.80,WSW,243,3.0,7.0,71,0.00,,,0.00,weatherlink.com 1.10,2013-09-21 20:02:00,
2013-09-21 16:17:00,81.4,72.0,29.80,SSW,200,2.0,7.0,72,0.00,,,0.00,weatherlink.com 1.10,2013-09-21 20:17:00,
2013-09-21 16:32:00,80.6,72.0,29.80,SW,229,4.0,7.0,74,0.00,,,0.00,weatherlink.com 1.10,2013-09-21 20:32:00,
2013-09-21 16:47:00,79.7,71.0,29.79,WSW,249,1.0,5.0,75,0.00,,,0.00,weatherlink.com 1.10,2013-09-21 20:47:00,
2013-09-21 17:17:00,79.6,72.0,29.79,SSW,197,3.0,6.0,77,0.00,,,0.00,weatherlink.com 1.10,2013-09-21 21:17:00,
2013-09-21 17:32:00,79.3,72.0,29.79,SW,214,0.0,5.0,78,0.00,,,0.00,weatherlink.com 1.10,2013-09-21 21:32:00,
2013-09-21 17:47:00,78.9,72.0,29.79,SW,217,2.0,7.0,78,0.00,,,0.00,weatherlink.com 1.10,2013-09-21 21:47:00,
2013-09-21 18:02:00,78.6,71.0,29.79,SW,236,2.0,6.0,78,0.00,,,0.00,weatherlink.com 1.10,2013-09-21 22:02:00,
2013-09-21 18:17:00,78.3,71.0,29.79,SSW,193,0.0,6.0,79,0.00,,,0.00,weatherlink.com 1.10,2013-09-21 22:17:00,
2013-09-21 18:32:00,78.1,72.0,29.79,West,261,0.0,4.0,80,0.00,,,0.00,weatherlink.com 1.10,2013-09-21 22:32:00,
2013-09-21 18:47:00,77.7,71.0,29.78,SW,232,1.0,3.0,81,0.00,,,0.00,weatherlink.com 1.10,2013-09-21 22:47:00,
2013-09-21 19:02:00,77.5,72.0,29.78,SSW,211,2.0,2.0,82,0.00,,,0.00,weatherlink.com 1.10,2013-09-21 23:02:00,
2013-09-21 19:17:00,77.2,71.0,29.78,South,174,1.0,3.0,82,0.00,,,0.00,weatherlink.com 1.10,2013-09-21 23:17:00,
2013-09-21 19:32:00,76.9,71.0,29.78,WSW,249,0.0,2.0,83,0.00,,,0.00,weatherlink.com 1.10,2013-09-21 23:32:00,
2013-09-21 19:47:00,76.8,72.0,29.78,WSW,240,3.0,3.0,84,0.00,,,0.00,weatherlink.com 1.10,2013-09-21 23:47:00,
2013-09-21 20:02:00,76.8,72.0,29.79,SW,222,1.0,2.0,84,0.00,,,0.00,weatherlink.com 1.10,2013-09-22 00:02:00,
2013-09-21 20:17:00,76.7,72.0,29.78,SW,224,0.0,3.0,84,0.00,,,0.00,weatherlink.com 1.10,2013-09-22 00:17:00,
2013-09-21 20:32:00,76.7,72.0,29.78,SW,219,0.0,2.0,85,0.00,,,0.00,weatherlink.com 1.10,2013-09-22 00:32:00,
2013-09-21 20:47:00,76.7,72.0,29.78,SSW,208,0.0,1.0,85,0.00,,,0.00,weatherlink.com 1.10,2013-09-22 00:47:00,
2013-09-21 21:02:00,76.6,72.0,29.78,SSW,207,0.0,2.0,86,0.00,,,0.00,weatherlink.com 1.10,2013-09-22 01:02:00,
2013-09-21 21:17:00,76.8,72.0,29.78,SW,229,1.0,5.0,86,0.00,,,0.00,weatherlink.com 1.10,2013-09-22 01:17:00,
2013-09-21 21:32:00,76.8,72.0,29.77,ENE,63,1.0,5.0,86,0.00,,,0.00,weatherlink.com 1.10,2013-09-22 01:32:00,
2013-09-21 21:47:00,77.0,72.0,29.77,South,177,5.0,8.0,85,0.00,,,0.00,weatherlink.com 1.10,2013-09-22 01:47:00,
2013-09-21 22:02:00,77.1,72.0,29.77,South,184,1.0,5.0,84,0.00,,,0.00,weatherlink.com 1.10,2013-09-22 02:02:00,
2013-09-21 22:17:00,77.2,72.0,29.76,WSW,249,1.0,4.0,84,0.00,,,0.00,weatherlink.com 1.10,2013-09-22 02:17:00,
2013-09-21 22:32:00,77.3,72.0,29.76,SW,214,1.0,7.0,84,0.00,,,0.00,weatherlink.com 1.10,2013-09-22 02:32:00,
2013-09-21 22:47:00,77.3,72.0,29.75,SSW,205,1.0,5.0,84,0.00,,,0.00,weatherlink.com 1.10,2013-09-22 02:47:00,
2013-09-21 23:02:00,77.5,72.0,29.76,SW,228,2.0,4.0,84,0.00,,,0.00,weatherlink.com 1.10,2013-09-22 03:02:00,
2013-09-21 23:17:00,77.4,72.0,29.76,WSW,245,0.0,6.0,84,0.00,,,0.00,weatherlink.com 1.10,2013-09-22 03:17:00,
2013-09-21 23:32:00,77.4,72.0,29.75,WNW,297,1.0,4.0,84,0.00,,,0.00,weatherlink.com 1.10,2013-09-22 03:32:00,
2013-09-21 23:47:00,77.4,72.0,29.75,SSW,199,2.0,4.0,84,0.00,,,0.00,weatherlink.com 1.10,2013-09-22 03:47:00,